Location: La Pernelle
(49.6188°N, 1.2999°W)
Time: 13:43:51
(UTC+00:00)

Cosmos 1741 Rocket - Pass Details

Date: 12 June 2021
Orbit: 761 x 783 km, 74.0° (Epoch: 04 August)

Event Time Altitude Azimuth Distance (km) Brightness Sun altitude
Rises 22:16:34 0° 334° (NNW) 3,243 9.3 -13.3°
Reaches altitude 10° 22:18:57 10° 331° (NNW) 2,315 8.0 -13.4°
Maximum altitude 22:24:08 64° 251° (WSW) 850 4.2 -13.8°
Enters shadow 22:27:49 20° 174° (S) 1,744 5.3 -14.0°
